EW9106 Weather Reports


time (UTC)temp
F
wind
direction
speed
knots
gust
knots
rain 1hr
in
rain 24hr
in
rain mn
in
humidity
%
barometer
mb
20260508154052 55 279 0.0 0.0 0.00 0.00 0.00 76 1009.9
20260508153552 55 273 0.0 0.0 0.00 0.00 0.00 75 1009.9
20260508153052 55 246 0.0 0.0 0.00 0.00 0.00 75 1009.8
20260508152553 55 257 0.0 0.9 0.00 0.00 0.00 75 1009.8
20260508152052 55 280 0.0 0.0 0.00 0.00 0.00 74 1009.9
20260508151552 55 278 0.0 1.7 0.00 0.00 0.00 74 1010.0
20260508151053 55 281 0.0 0.0 0.00 0.00 0.00 74 1009.9
20260508150552 55 306 0.0 2.6 0.00 0.00 0.00 73 1009.9
20260508150052 56 292 0.0 5.2 0.00 0.00 0.00 73 1009.9
20260508145052 55 282 0.0 0.0 0.00 0.00 0.00 75 1010.0
20260508144552 55 279 0.0 0.0 0.00 0.00 0.00 74 1009.9
20260508144052 55 278 0.9 2.6 0.00 0.00 0.00 75 1009.9
20260508143553 54 275 0.0 0.0 0.00 0.00 0.00 76 1010.0
20260508143052 54 224 0.0 0.0 0.00 0.00 0.00 76 1010.2
20260508142553 54 239 0.0 0.0 0.00 0.00 0.00 75 1010.1
20260508142052 54 283 0.0 0.0 0.00 0.00 0.00 74 1010.1
20260508141552 54 270 0.0 0.0 0.00 0.00 0.00 75 1009.9
20260508140552 54 228 0.0 0.0 0.00 0.00 0.00 76 1010.0
20260508140052 54 286 0.0 0.0 0.00 0.00 0.00 74 1009.9
20260508135552 54 279 0.0 0.0 0.00 0.00 0.00 74 1009.9
20260508135053 54 239 0.0 0.0 0.00 0.00 0.00 74 1010.0
20260508134552 54 219 0.0 0.0 0.00 0.00 0.00 75 1010.0
20260508134052 54 222 0.0 0.0 0.00 0.00 0.00 76 1010.1
20260508133553 54 284 0.0 0.0 0.00 0.00 0.00 75 1010.0
20260508133052 53 298 0.0 0.0 0.00 0.00 0.00 76 1010.0
20260508132552 53 291 0.0 0.0 0.00 0.00 0.00 76 1010.1
20260508132053 53 284 0.0 0.0 0.00 0.00 0.00 75 1010.2
20260508131552 53 268 0.0 0.0 0.00 0.00 0.00 75 1010.2
20260508131053 53 229 0.0 0.0 0.00 0.00 0.00 77 1010.1
20260508130553 52 222 0.0 0.0 0.00 0.00 0.00 77 1010.1
20260508130052 52 254 0.0 0.0 0.00 0.00 0.00 79 1010.1
20260508125552 51 261 0.0 0.0 0.00 0.00 0.00 78 1010.2
20260508125052 51 248 0.0 0.0 0.00 0.00 0.00 80 1010.1
20260508124552 51 243 0.0 0.0 0.00 0.00 0.00 80 1010.1
20260508124052 51 220 0.0 0.0 0.00 0.00 0.00 80 1010.1
20260508123552 50 229 0.0 0.0 0.00 0.00 0.00 81 1010.2
20260508123053 50 234 0.0 0.0 0.00 0.00 0.00 83 1010.2
20260508122553 49 232 0.0 0.0 0.00 0.00 0.00 83 1010.2
20260508122053 49 233 0.0 0.0 0.00 0.00 0.00 83 1010.3
20260508121552 49 232 0.0 0.0 0.00 0.00 0.00 83 1010.3
20260508121052 49 230 0.0 0.0 0.00 0.00 0.00 84 1010.1
20260508120553 48 230 0.0 0.0 0.00 0.00 0.00 85 1010.1
20260508120052 48 228 0.0 0.0 0.00 0.00 0.00 85 1010.1
20260508115553 48 211 0.0 0.0 0.00 0.00 0.00 85 1010.0
20260508115052 48 229 0.0 0.0 0.00 0.00 0.00 85 1009.9
20260508114553 48 226 0.0 0.0 0.00 0.00 0.00 85 1009.8
20260508113554 47 222 0.0 0.0 0.00 0.00 0.00 88 1009.7
20260508113052 47 221 0.0 0.0 0.00 0.00 0.00 88 1009.6
20260508112553 46 222 0.0 0.0 0.00 0.00 0.00 90 1009.5
20260508110552 46 212 0.0 0.0 0.00 0.00 0.00 90 1009.2
20260508105053 46 179 0.0 0.0 0.00 0.00 0.00 90 1009.2
20260508104553 46 175 0.0 0.0 0.00 0.00 0.00 90 1009.2
20260508104053 46 174 0.0 0.0 0.00 0.00 0.00 90 1009.1
20260508103553 46 174 0.0 0.0 0.00 0.00 0.00 90 1009.1
20260508102553 46 166 0.0 0.0 0.00 0.00 0.00 91 1009.1
20260508102053 46 165 0.0 0.0 0.00 0.00 0.00 91 1009.1
20260508101052 46 163 0.0 0.0 0.00 0.00 0.00 90 1009.1
20260508100554 46 161 0.0 0.0 0.00 0.00 0.00 90 1009.2
20260508095552 46 161 0.0 0.0 0.00 0.00 0.00 90 1009.3
20260508095052 46 157 0.0 0.0 0.00 0.00 0.00 90 1009.3
20260508094053 46 198 0.0 0.0 0.00 0.00 0.00 90 1009.3
20260508093552 46 198 0.0 0.0 0.00 0.00 0.00 90 1009.3
20260508093053 46 196 0.0 0.0 0.00 0.00 0.00 90 1009.2
20260508092053 46 194 0.0 0.0 0.00 0.00 0.00 90 1009.3
20260508091552 47 190 0.0 2.6 0.00 0.00 0.00 90 1009.1
20260508091053 47 225 0.0 0.0 0.00 0.00 0.00 90 1009.1
20260508090553 47 207 0.0 0.0 0.00 0.00 0.00 90 1009.3
20260508090052 47 184 0.0 0.0 0.00 0.00 0.00 90 1009.2
20260508085552 47 198 0.0 0.0 0.00 0.00 0.00 90 1009.3
20260508085053 47 193 0.0 0.0 0.00 0.00 0.00 90 1009.2
20260508084552 47 193 0.0 0.0 0.00 0.00 0.00 90 1009.2
20260508083553 47 207 0.0 0.0 0.00 0.00 0.00 89 1009.3
20260508082553 47 209 0.0 0.0 0.00 0.00 0.00 89 1009.4
20260508081553 47 209 0.0 0.0 0.00 0.00 0.00 88 1009.6
20260508081054 47 209 0.0 0.9 0.00 0.00 0.00 88 1009.4
20260508080553 47 209 0.0 0.9 0.00 0.00 0.00 88 1009.5
20260508075553 47 187 0.0 0.0 0.00 0.00 0.00 88 1009.5
20260508075053 48 256 0.0 0.0 0.00 0.00 0.00 88 1009.4
20260508074553 48 256 0.0 0.0 0.00 0.00 0.00 88 1009.6
20260508073053 48 221 0.0 0.0 0.00 0.00 0.00 88 1009.6
20260508072554 48 219 0.9 2.6 0.00 0.00 0.00 88 1009.7
20260508072053 47 229 0.0 0.9 0.00 0.00 0.00 88 1009.6
20260508071553 47 227 0.0 0.0 0.00 0.00 0.00 88 1009.5
20260508070553 47 240 2.6 6.1 0.00 0.00 0.00 88 1009.4
20260508070053 47 244 0.0 0.0 0.00 0.00 0.00 88 1009.9
20260508065553 47 220 0.0 0.0 0.00 0.00 0.00 88 1009.7
20260508065053 47 213 0.0 0.0 0.00 0.00 0.00 88 1009.8
20260508064553 47 192 0.0 0.0 0.00 0.00 0.00 87 1009.8
20260508064052 47 189 0.0 0.0 0.00 0.00 0.00 87 1009.8
20260508063553 47 187 0.0 0.0 0.00 0.00 0.00 87 1009.9
20260508063053 47 219 0.0 0.0 0.00 0.00 0.00 87 1010.0
20260508062553 48 219 0.0 0.0 0.00 0.00 0.00 87 1010.1
20260508062052 48 215 0.0 0.0 0.00 0.00 0.00 87 1010.1
20260508061554 48 219 0.0 0.0 0.00 0.00 0.00 86 1010.0
20260508061053 48 216 0.0 0.0 0.00 0.00 0.00 87 1010.1
20260508060553 48 213 0.0 0.0 0.00 0.00 0.00 86 1010.1
20260508060053 48 212 0.0 0.0 0.00 0.00 0.00 86 1010.2
20260508055553 48 216 0.0 2.6 0.00 0.00 0.00 86 1010.1
20260508055053 48 219 0.0 0.9 0.00 0.00 0.00 86 1010.2
20260508054554 48 220 0.0 0.0 0.00 0.00 0.00 85 1010.2
20260508054053 48 220 0.0 0.0 0.00 0.00 0.00 84 1010.2
20260508053553 49 222 0.0 1.7 0.00 0.00 0.00 84 1010.3
20260508052553 49 265 0.0 0.0 0.00 0.00 0.00 83 1010.7
20260508052053 49 265 0.0 0.0 0.00 0.00 0.00 82 1010.7
20260508051553 49 227 0.0 0.0 0.00 0.00 0.00 82 1010.6
20260508051053 49 265 0.0 0.0 0.00 0.00 0.00 80 1011.1
20260508050552 49 251 0.0 0.0 0.00 0.00 0.00 79 1011.1
20260508050053 49 218 0.0 0.0 0.00 0.00 0.00 78 1011.0
20260508045053 49 221 0.0 0.0 0.00 0.00 0.00 76 1010.9
20260508044053 49 227 0.0 0.0 0.00 0.00 0.00 75 1010.8
20260508043553 50 219 0.0 0.0 0.00 0.00 0.00 75 1010.8
20260508042553 50 186 0.0 0.0 0.00 0.00 0.00 73 1010.7
20260508042053 50 182 0.0 0.0 0.00 0.00 0.00 73 1010.6
20260508041553 50 182 0.0 0.0 0.00 0.00 0.00 73 1010.3
20260508041053 50 182 0.0 0.0 0.00 0.00 0.00 72 1010.3
20260508040553 50 182 0.0 0.0 0.00 0.00 0.00 72 1010.3
20260508040053 50 182 0.0 0.0 0.00 0.00 0.00 72 1010.3
20260508035553 50 182 0.0 0.0 0.00 0.00 0.00 72 1010.2
20260508035054 50 182 0.0 0.0 0.00 0.00 0.00 72 1010.2
20260508034553 50 182 0.0 0.9 0.00 0.00 0.00 71 1010.1
20260508034053 50 184 0.0 0.0 0.00 0.00 0.00 71 1010.4
20260508033554 50 183 0.0 0.0 0.00 0.00 0.00 71 1010.6
20260508033053 50 183 0.0 0.0 0.00 0.00 0.00 70 1010.6
20260508032053 50 183 0.0 0.0 0.00 0.00 0.00 71 1010.4
20260508031554 50 181 0.0 0.0 0.00 0.00 0.00 71 1010.4
20260508031053 50 256 0.0 0.0 0.00 0.00 0.00 71 1010.6
20260508030553 50 256 0.0 0.0 0.00 0.00 0.00 71 1010.6
20260508030053 51 256 0.0 0.0 0.00 0.00 0.00 71 1010.7
20260508025554 51 256 0.0 0.0 0.00 0.00 0.00 71 1010.7
20260508025053 51 256 0.0 0.0 0.00 0.00 0.00 71 1010.8
20260508024553 51 256 0.0 0.0 0.00 0.00 0.00 72 1010.9
20260508023054 51 301 0.0 0.0 0.00 0.00 0.00 70 1011.0
20260508022553 51 301 0.0 0.0 0.00 0.00 0.00 70 1010.9
20260508022053 51 301 0.0 0.0 0.00 0.00 0.00 70 1011.0
20260508020553 52 301 0.0 0.0 0.00 0.00 0.00 68 1010.8
20260508020053 52 301 0.0 0.0 0.00 0.00 0.00 67 1010.9
20260508015553 52 301 0.0 0.0 0.00 0.00 0.00 64 1010.9
20260508015053 52 301 0.0 0.0 0.00 0.00 0.00 62 1010.9
20260508014554 52 301 0.0 0.0 0.00 0.00 0.00 62 1010.9
20260508014054 52 301 0.0 0.0 0.00 0.00 0.00 61 1010.9
20260508013554 52 301 0.0 0.0 0.00 0.00 0.00 61 1010.8
20260508012553 52 298 0.0 0.0 0.00 0.00 0.00 60 1010.7
20260508012054 52 298 0.0 0.0 0.00 0.00 0.00 59 1010.8
20260508011553 52 306 0.0 0.0 0.00 0.00 0.00 59 1010.7
20260508011053 53 304 0.0 0.0 0.00 0.00 0.00 58 1010.6
20260508010553 53 275 0.0 0.0 0.00 0.00 0.00 57 1010.6
20260508005553 53 292 0.0 0.0 0.00 0.00 0.00 54 1010.6
20260508005053 53 280 0.0 0.0 0.00 0.00 0.00 54 1010.5
20260508004553 53 238 0.0 2.6 0.00 0.00 0.00 55 1010.5
20260508004054 54 263 0.0 1.7 0.00 0.00 0.00 53 1010.4
20260508003554 54 270 0.0 0.0 0.00 0.00 0.00 53 1010.4
20260508002553 54 32 0.0 0.0 0.00 0.00 0.00 51 1010.2
20260508002053 54 324 0.0 0.0 0.00 0.00 0.00 50 1010.2
20260508001554 55 294 0.0 0.0 0.00 0.00 0.00 48 1010.1
20260508001053 55 296 0.0 0.0 0.00 0.00 0.00 49 1010.1
20260508000553 55 285 0.0 0.0 0.00 0.00 0.00 47 1010.0
20260508000054 55 264 0.0 0.0 0.00 0.00 0.00 47 1010.1
20260507235554 55 35 0.0 0.0 0.00 0.00 0.00 46 1009.9
20260507233553 56 286 0.0 0.0 0.00 0.00 0.00 45 1009.6
20260507233055 56 284 0.0 0.0 0.00 0.00 0.00 45 1009.6
20260507232553 56 284 0.0 0.0 0.00 0.00 0.00 44 1009.5
20260507232053 56 284 0.0 0.0 0.00 0.00 0.00 43 1009.4
20260507231554 56 284 0.0 0.0 0.00 0.00 0.00 44 1009.5
20260507231053 56 275 0.0 0.0 0.00 0.00 0.00 45 1009.6
20260507230554 56 275 0.0 0.0 0.00 0.00 0.00 42 1009.7
20260507230054 56 261 0.0 0.0 0.00 0.00 0.00 44 1009.7
20260507225554 57 290 0.0 0.0 0.00 0.00 0.00 42 1009.7
20260507225054 57 228 0.0 0.0 0.00 0.00 0.00 42 1009.7
20260507224554 57 296 0.0 0.0 0.00 0.00 0.00 43 1009.8
20260507224053 57 284 0.0 0.0 0.00 0.00 0.00 43 1009.8
20260507223554 57 284 0.0 0.0 0.00 0.00 0.00 42 1009.8
20260507223053 57 285 0.0 0.0 0.00 0.00 0.00 42 1009.9
20260507222554 56 346 0.0 0.0 0.00 0.00 0.00 42 1009.9
20260507222054 56 346 0.0 0.0 0.00 0.00 0.00 42 1009.8
20260507221553 57 293 0.0 0.0 0.00 0.00 0.00 40 1009.9
20260507221055 57 283 0.0 0.0 0.00 0.00 0.00 42 1009.9
20260507220553 57 24 0.0 0.0 0.00 0.00 0.00 44 1009.9
20260507220054 56 285 0.0 0.0 0.00 0.00 0.00 42 1009.9
20260507215554 57 324 0.0 0.0 0.00 0.00 0.00 41 1009.8
20260507215053 57 293 0.0 0.0 0.00 0.00 0.00 41 1009.8
20260507214054 56 332 0.0 0.0 0.00 0.00 0.00 44 1009.7
20260507213554 56 352 0.0 0.0 0.00 0.00 0.00 43 1009.7
20260507213053 56 298 0.0 0.0 0.00 0.00 0.00 42 1009.7
20260507212553 56 289 0.0 0.0 0.00 0.00 0.00 43 1009.8
20260507212054 57 293 0.0 0.9 0.00 0.00 0.00 42 1009.8
20260507211553 57 288 0.0 0.0 0.00 0.00 0.00 41 1009.7
20260507211054 57 281 0.0 0.0 0.00 0.00 0.00 43 1009.7
20260507210054 56 304 0.0 0.0 0.00 0.00 0.00 42 1009.7
20260507205554 56 299 0.0 0.9 0.00 0.00 0.00 40 1009.8
20260507205054 57 318 0.0 0.0 0.00 0.00 0.00 41 1009.7
20260507204554 56 268 0.0 0.0 0.00 0.00 0.00 44 1009.7
20260507204053 56 287 0.0 0.0 0.00 0.00 0.00 43 1009.8
20260507203555 56 301 0.0 0.0 0.00 0.00 0.00 43 1009.8
20260507203053 56 315 0.0 0.0 0.00 0.00 0.00 44 1010.0
20260507202553 56 316 0.0 0.0 0.00 0.00 0.00 44 1009.9
20260507202054 56 291 0.0 0.0 0.00 0.00 0.00 42 1009.9
20260507201054 57 325 0.0 6.1 0.00 0.00 0.00 44 1009.9
20260507200054 56 344 0.0 0.0 0.00 0.00 0.00 43 1009.8
20260507195554 55 305 0.0 2.6 0.00 0.00 0.00 43 1009.8
20260507195054 55 286 0.0 0.0 0.00 0.00 0.00 44 1009.8
20260507194555 55 290 0.0 2.6 0.00 0.00 0.00 44 1010.0
20260507193554 56 293 0.0 0.0 0.00 0.00 0.00 46 1009.8
20260507193054 56 292 0.0 0.0 0.00 0.00 0.00 43 1009.9
20260507192554 56 297 0.0 0.0 0.00 0.00 0.00 45 1010.0
20260507192055 55 297 0.0 2.6 0.00 0.00 0.00 47 1009.9
20260507191554 55 293 0.0 5.2 0.00 0.00 0.00 43 1010.2
20260507191055 55 274 0.0 2.6 0.00 0.00 0.00 45 1010.1
20260507190554 55 298 0.0 2.6 0.00 0.00 0.00 45 1010.2
20260507190054 55 286 0.0 2.6 0.00 0.00 0.00 44 1010.2
20260507185054 55 318 0.0 0.0 0.00 0.00 0.00 46 1010.1
20260507184554 55 279 0.0 0.0 0.00 0.00 0.00 47 1010.2
20260507184054 55 271 0.0 0.0 0.00 0.00 0.00 48 1010.3
20260507183054 55 316 0.0 0.0 0.00 0.00 0.00 46 1010.5
20260507182554 55 294 0.0 0.0 0.00 0.00 0.00 49 1010.5
20260507182053 56 274 0.0 0.0 0.00 0.00 0.00 49 1010.6
20260507181554 55 280 0.0 0.0 0.00 0.00 0.00 50 1010.5
20260507180554 55 290 0.0 0.0 0.00 0.00 0.00 50 1010.5
20260507180055 55 293 0.0 0.0 0.00 0.00 0.00 49 1010.6
20260507175554 54 278 0.0 0.0 0.00 0.00 0.00 54 1010.6
20260507175054 54 295 0.0 0.9 0.00 0.00 0.00 53 1010.6
20260507174554 54 290 0.0 0.0 0.00 0.00 0.00 51 1010.6
20260507174054 54 230 0.0 0.0 0.00 0.00 0.00 52 1010.6
20260507173553 54 289 0.0 0.0 0.00 0.00 0.00 53 1010.5
20260507172554 54 310 0.0 2.6 0.00 0.00 0.00 51 1010.8
20260507172054 55 263 0.9 6.1 0.00 0.00 0.00 53 1010.8
20260507171554 54 233 0.0 2.6 0.00 0.00 0.00 54 1010.8
20260507171054 53 308 0.0 0.0 0.00 0.00 0.00 54 1010.9
20260507170554 53 268 0.0 0.0 0.00 0.00 0.00 53 1011.1
20260507170055 53 301 0.0 0.0 0.00 0.00 0.00 56 1011.1
20260507165554 52 300 0.0 7.8 0.00 0.00 0.00 55 1011.1
20260507165054 53 282 0.0 1.7 0.00 0.00 0.00 55 1011.2
20260507164554 53 287 0.0 0.0 0.00 0.00 0.00 56 1011.1
20260507164055 52 285 0.0 0.0 0.00 0.00 0.00 56 1011.1
20260507163554 52 286 0.0 0.0 0.00 0.00 0.00 56 1011.1
20260507163054 53 285 0.0 0.0 0.00 0.00 0.00 56 1011.2
20260507162554 53 291 0.0 0.0 0.00 0.00 0.00 54 1011.2
20260507162054 53 292 0.0 0.0 0.00 0.00 0.00 53 1011.2
20260507161555 53 252 0.0 0.0 0.00 0.00 0.00 54 1011.1
20260507160555 53 295 0.0 0.0 0.00 0.00 0.00 58 1011.1
20260507160054 52 284 0.0 0.0 0.00 0.00 0.00 55 1011.1
20260507155054 54 314 0.0 0.0 0.00 0.00 0.00 54 1011.1